Time,TemperatureF,DewpointF,PressureIn,WindDirection,WindDirectionDegrees,WindSpeedMPH,WindSpeedGustMPH,Humidity,HourlyPrecipIn,Conditions,Clouds,dailyrainin,SolarRadiationWatts/m^2,SoftwareType,DateUTC
2013-03-06 00:02:00,20.0,17.0,-100.00,North,353,7.0,10.0,87,0.00,,,0.00,1.000000,,2013-03-06 06:02:00,
2013-03-06 00:11:00,20.0,17.0,-100.00,North,353,7.0,10.0,87,0.00,,,0.00,1.000000,,2013-03-06 06:11:00,
2013-03-06 00:22:00,20.0,17.0,-100.00,North,353,7.0,10.0,87,0.00,,,0.00,1.000000,,2013-03-06 06:22:00,
2013-03-06 00:32:00,20.0,17.0,-100.00,North,353,7.0,10.0,87,0.00,,,0.00,1.000000,,2013-03-06 06:32:00,
2013-03-06 00:52:00,21.0,19.0,-100.00,North,5,3.0,10.0,91,0.00,,,0.00,1.000000,,2013-03-06 06:52:00,
2013-03-06 01:01:00,21.0,19.0,-100.00,North,5,3.0,10.0,91,0.00,,,0.00,1.000000,,2013-03-06 07:01:00,
2013-03-06 01:11:00,21.0,19.0,-100.00,North,5,3.0,10.0,91,0.00,,,0.00,1.000000,,2013-03-06 07:11:00,
2013-03-06 01:22:00,21.0,19.0,-100.00,North,5,3.0,10.0,91,0.00,,,0.00,1.000000,,2013-03-06 07:22:00,
2013-03-06 01:32:00,21.0,19.0,-100.00,North,5,3.0,10.0,91,0.00,,,0.00,1.000000,,2013-03-06 07:32:00,
2013-03-06 01:52:00,21.0,19.0,-100.00,NNE,15,4.0,8.0,92,0.00,,,0.00,1.000000,,2013-03-06 07:52:00,
2013-03-06 02:01:00,21.0,19.0,-100.00,NNE,15,4.0,8.0,92,0.00,,,0.00,1.000000,,2013-03-06 08:01:00,
2013-03-06 02:11:00,21.0,19.0,-100.00,NNE,15,4.0,8.0,92,0.00,,,0.00,1.000000,,2013-03-06 08:11:00,
2013-03-06 02:21:00,21.0,19.0,-100.00,NNE,15,4.0,8.0,92,0.00,,,0.00,1.000000,,2013-03-06 08:21:00,
2013-03-06 02:32:00,21.0,19.0,-100.00,NNE,15,4.0,8.0,92,0.00,,,0.00,1.000000,,2013-03-06 08:32:00,
2013-03-06 02:52:00,22.0,20.0,-100.00,NNE,31,5.0,7.0,92,0.00,,,0.00,1.000000,,2013-03-06 08:52:00,
2013-03-06 03:01:00,22.0,20.0,-100.00,NNE,31,5.0,7.0,92,0.00,,,0.00,1.000000,,2013-03-06 09:01:00,
2013-03-06 03:12:00,22.0,20.0,-100.00,NNE,31,5.0,7.0,92,0.00,,,0.00,1.000000,,2013-03-06 09:12:00,
2013-03-06 03:21:00,22.0,20.0,-100.00,NNE,31,5.0,7.0,92,0.00,,,0.00,1.000000,,2013-03-06 09:21:00,
2013-03-06 03:31:00,22.0,20.0,-100.00,NNE,31,5.0,7.0,92,0.00,,,0.00,1.000000,,2013-03-06 09:31:00,
2013-03-06 04:01:00,22.0,20.0,-100.00,NNE,24,3.0,7.0,92,0.00,,,0.00,1.000000,,2013-03-06 10:01:00,
2013-03-06 04:11:00,22.0,20.0,-100.00,NNE,24,3.0,7.0,92,0.00,,,0.00,1.000000,,2013-03-06 10:11:00,
2013-03-06 04:22:00,22.0,20.0,-100.00,NNE,24,3.0,7.0,92,0.00,,,0.00,1.000000,,2013-03-06 10:22:00,
2013-03-06 04:32:00,22.0,20.0,-100.00,NNE,24,3.0,7.0,92,0.00,,,0.00,1.000000,,2013-03-06 10:32:00,
2013-03-06 04:52:00,22.0,20.0,-100.00,North,350,4.0,7.0,91,0.00,,,0.00,1.000000,,2013-03-06 10:52:00,
2013-03-06 05:02:00,22.0,20.0,-100.00,North,350,4.0,7.0,91,0.00,,,0.00,1.000000,,2013-03-06 11:02:00,
2013-03-06 05:11:00,22.0,20.0,-100.00,North,350,4.0,7.0,91,0.00,,,0.00,1.000000,,2013-03-06 11:11:00,
2013-03-06 05:22:00,22.0,20.0,-100.00,North,350,4.0,7.0,91,0.00,,,0.00,1.000000,,2013-03-06 11:22:00,
2013-03-06 05:32:00,22.0,20.0,-100.00,North,350,4.0,7.0,91,0.00,,,0.00,1.000000,,2013-03-06 11:32:00,
2013-03-06 05:52:00,22.0,20.0,-100.00,North,356,4.0,7.0,90,0.00,,,0.00,1.000000,,2013-03-06 11:52:00,
2013-03-06 06:02:00,22.0,20.0,-100.00,North,356,4.0,7.0,90,0.00,,,0.00,1.000000,,2013-03-06 12:02:00,
2013-03-06 06:11:00,22.0,20.0,-100.00,North,356,4.0,7.0,90,0.00,,,0.00,1.000000,,2013-03-06 12:11:00,
2013-03-06 06:21:00,22.0,20.0,-100.00,North,356,4.0,7.0,90,0.00,,,0.00,1.000000,,2013-03-06 12:21:00,
2013-03-06 06:32:00,22.0,20.0,-100.00,North,356,4.0,7.0,90,0.00,,,0.00,1.000000,,2013-03-06 12:32:00,
2013-03-06 06:53:00,21.0,19.0,-100.00,North,5,3.0,7.0,91,0.00,,,0.00,2.000000,,2013-03-06 12:53:00,
2013-03-06 07:02:00,21.0,19.0,-100.00,North,5,3.0,7.0,91,0.00,,,0.00,2.000000,,2013-03-06 13:02:00,
2013-03-06 07:12:00,21.0,19.0,-100.00,North,5,3.0,7.0,91,0.00,,,0.00,2.000000,,2013-03-06 13:12:00,
2013-03-06 07:22:00,21.0,19.0,-100.00,North,5,3.0,7.0,91,0.00,,,0.00,2.000000,,2013-03-06 13:22:00,
2013-03-06 07:32:00,21.0,19.0,-100.00,North,5,3.0,7.0,91,0.00,,,0.00,2.000000,,2013-03-06 13:32:00,
2013-03-06 07:52:00,22.0,20.0,-100.00,North,6,5.0,10.0,90,0.00,,,0.00,21.000000,,2013-03-06 13:52:00,
2013-03-06 08:01:00,22.0,20.0,-100.00,North,6,5.0,10.0,90,0.00,,,0.00,21.000000,,2013-03-06 14:01:00,
2013-03-06 08:11:00,22.0,20.0,-100.00,North,6,5.0,10.0,90,0.00,,,0.00,21.000000,,2013-03-06 14:11:00,
2013-03-06 08:22:00,22.0,20.0,-100.00,North,6,5.0,10.0,90,0.00,,,0.00,21.000000,,2013-03-06 14:22:00,
2013-03-06 08:32:00,22.0,20.0,-100.00,North,6,5.0,10.0,90,0.00,,,0.00,21.000000,,2013-03-06 14:32:00,
2013-03-06 09:02:00,22.0,20.0,-100.00,North,354,7.0,13.0,90,0.00,,,0.00,41.000000,,2013-03-06 15:02:00,
2013-03-06 09:11:00,22.0,20.0,-100.00,North,354,7.0,13.0,90,0.00,,,0.00,41.000000,,2013-03-06 15:11:00,
2013-03-06 09:21:00,22.0,20.0,-100.00,North,354,7.0,13.0,90,0.00,,,0.00,41.000000,,2013-03-06 15:21:00,
2013-03-06 09:32:00,22.0,20.0,-100.00,North,354,7.0,13.0,90,0.00,,,0.00,41.000000,,2013-03-06 15:32:00,
2013-03-06 09:52:00,23.0,19.0,-100.00,NNE,16,5.0,11.0,83,0.00,,,0.00,120.000000,,2013-03-06 15:52:00,
2013-03-06 10:02:00,23.0,19.0,-100.00,NNE,16,5.0,11.0,83,0.00,,,0.00,120.000000,,2013-03-06 16:02:00,
2013-03-06 10:11:00,23.0,19.0,-100.00,NNE,16,5.0,11.0,83,0.00,,,0.00,120.000000,,2013-03-06 16:11:00,
2013-03-06 10:21:00,23.0,19.0,-100.00,NNE,16,5.0,11.0,83,0.00,,,0.00,120.000000,,2013-03-06 16:21:00,
2013-03-06 10:32:00,23.0,19.0,-100.00,NNE,16,5.0,11.0,83,0.00,,,0.00,120.000000,,2013-03-06 16:32:00,
2013-03-06 11:01:00,25.0,19.0,-100.00,North,350,6.0,10.0,76,0.00,,,0.00,221.000000,,2013-03-06 17:01:00,
2013-03-06 11:11:00,25.0,19.0,-100.00,North,350,6.0,10.0,76,0.00,,,0.00,221.000000,,2013-03-06 17:11:00,
2013-03-06 11:22:00,25.0,19.0,-100.00,North,350,6.0,10.0,76,0.00,,,0.00,221.000000,,2013-03-06 17:22:00,
2013-03-06 11:32:00,25.0,19.0,-100.00,North,350,6.0,10.0,76,0.00,,,0.00,221.000000,,2013-03-06 17:32:00,
2013-03-06 12:02:00,25.0,18.0,-100.00,NNW,341,6.0,12.0,73,0.00,,,0.00,253.000000,,2013-03-06 18:02:00,
2013-03-06 12:28:00,25.0,18.0,-100.00,NNW,341,6.0,12.0,73,0.00,,,0.00,253.000000,,2013-03-06 18:28:00,
2013-03-06 12:53:00,25.0,16.0,-100.00,NNW,346,6.0,11.0,69,0.00,,,0.00,275.000000,,2013-03-06 18:53:00,
2013-03-06 13:02:00,25.0,16.0,-100.00,NNW,346,6.0,11.0,69,0.00,,,0.00,275.000000,,2013-03-06 19:02:00,
2013-03-06 13:11:00,25.0,16.0,-100.00,NNW,346,6.0,11.0,69,0.00,,,0.00,275.000000,,2013-03-06 19:11:00,
2013-03-06 13:22:00,25.0,16.0,-100.00,NNW,346,6.0,11.0,69,0.00,,,0.00,275.000000,,2013-03-06 19:22:00,
2013-03-06 13:32:00,25.0,16.0,-100.00,NNW,346,6.0,11.0,69,0.00,,,0.00,275.000000,,2013-03-06 19:32:00,
2013-03-06 14:02:00,26.0,16.0,-100.00,NNW,335,5.0,13.0,64,0.00,,,0.00,291.000000,,2013-03-06 20:02:00,
2013-03-06 14:12:00,26.0,16.0,-100.00,NNW,335,5.0,13.0,64,0.00,,,0.00,291.000000,,2013-03-06 20:12:00,
2013-03-06 14:22:00,26.0,16.0,-100.00,NNW,335,5.0,13.0,64,0.00,,,0.00,291.000000,,2013-03-06 20:22:00,
2013-03-06 14:32:00,26.0,16.0,-100.00,NNW,335,5.0,13.0,64,0.00,,,0.00,291.000000,,2013-03-06 20:32:00,
2013-03-06 15:02:00,27.0,15.0,-100.00,NNW,342,6.0,13.0,60,0.02,,,0.02,291.000000,,2013-03-06 21:02:00,
2013-03-06 15:12:00,27.0,15.0,-100.00,NNW,342,6.0,13.0,60,0.02,,,0.02,291.000000,,2013-03-06 21:12:00,
2013-03-06 15:22:00,27.0,15.0,-100.00,NNW,342,6.0,13.0,60,0.02,,,0.02,291.000000,,2013-03-06 21:22:00,
2013-03-06 15:32:00,27.0,15.0,-100.00,NNW,342,6.0,13.0,60,0.02,,,0.02,291.000000,,2013-03-06 21:32:00,
2013-03-06 16:02:00,26.0,14.0,-100.00,North,8,5.0,9.0,59,0.01,,,0.03,281.000000,,2013-03-06 22:02:00,
2013-03-06 16:11:00,26.0,14.0,-100.00,North,8,5.0,9.0,59,0.01,,,0.03,281.000000,,2013-03-06 22:11:00,
2013-03-06 16:22:00,26.0,14.0,-100.00,North,8,5.0,9.0,59,0.01,,,0.03,281.000000,,2013-03-06 22:22:00,
2013-03-06 16:32:00,26.0,14.0,-100.00,North,8,5.0,9.0,59,0.01,,,0.03,281.000000,,2013-03-06 22:32:00,
2013-03-06 16:52:00,24.0,13.0,-100.00,North,1,5.0,11.0,62,0.00,,,0.03,118.000000,,2013-03-06 22:52:00,
2013-03-06 17:01:00,24.0,13.0,-100.00,North,1,5.0,11.0,62,0.00,,,0.03,118.000000,,2013-03-06 23:01:00,
2013-03-06 17:11:00,24.0,13.0,-100.00,North,1,5.0,11.0,62,0.00,,,0.03,118.000000,,2013-03-06 23:11:00,
2013-03-06 17:21:00,24.0,13.0,-100.00,North,1,5.0,11.0,62,0.00,,,0.03,118.000000,,2013-03-06 23:21:00,
2013-03-06 17:32:00,24.0,13.0,-100.00,North,1,5.0,11.0,62,0.00,,,0.03,118.000000,,2013-03-06 23:32:00,
2013-03-06 18:02:00,22.0,13.0,-100.00,NNE,31,5.0,9.0,68,0.00,,,0.03,45.000000,,2013-03-07 00:02:00,
2013-03-06 18:11:00,22.0,13.0,-100.00,NNE,31,5.0,9.0,68,0.00,,,0.03,45.000000,,2013-03-07 00:11:00,
2013-03-06 18:21:00,22.0,13.0,-100.00,NNE,31,5.0,9.0,68,0.00,,,0.03,45.000000,,2013-03-07 00:21:00,
2013-03-06 18:32:00,22.0,13.0,-100.00,NNE,31,5.0,9.0,68,0.00,,,0.03,45.000000,,2013-03-07 00:32:00,
2013-03-06 19:01:00,17.0,10.0,-100.00,SE,127,0.0,5.0,74,0.00,,,0.03,4.000000,,2013-03-07 01:01:00,
2013-03-06 19:11:00,17.0,10.0,-100.00,SE,127,0.0,5.0,74,0.00,,,0.03,4.000000,,2013-03-07 01:11:00,
2013-03-06 19:21:00,17.0,10.0,-100.00,SE,127,0.0,5.0,74,0.00,,,0.03,4.000000,,2013-03-07 01:21:00,
2013-03-06 19:31:00,17.0,10.0,-100.00,SE,127,0.0,5.0,74,0.00,,,0.03,4.000000,,2013-03-07 01:31:00,
2013-03-06 19:52:00,12.0,8.0,-100.00,SSW,203,0.0,0.0,85,0.00,,,0.03,1.000000,,2013-03-07 01:52:00,
2013-03-06 20:01:00,12.0,8.0,-100.00,SSW,203,0.0,0.0,85,0.00,,,0.03,1.000000,,2013-03-07 02:01:00,
2013-03-06 20:11:00,12.0,8.0,-100.00,SSW,203,0.0,0.0,85,0.00,,,0.03,1.000000,,2013-03-07 02:11:00,
2013-03-06 20:21:00,12.0,8.0,-100.00,SSW,203,0.0,0.0,85,0.00,,,0.03,1.000000,,2013-03-07 02:21:00,
2013-03-06 20:32:00,12.0,8.0,-100.00,SSW,203,0.0,0.0,85,0.00,,,0.03,1.000000,,2013-03-07 02:32:00,
2013-03-06 21:02:00,11.0,7.0,-100.00,SSW,210,1.0,2.0,85,0.00,,,0.03,1.000000,,2013-03-07 03:02:00,
2013-03-06 21:11:00,11.0,7.0,-100.00,SSW,210,1.0,2.0,85,0.00,,,0.03,1.000000,,2013-03-07 03:11:00,
2013-03-06 21:21:00,11.0,7.0,-100.00,SSW,210,1.0,2.0,85,0.00,,,0.03,1.000000,,2013-03-07 03:21:00,
2013-03-06 21:32:00,11.0,7.0,-100.00,SSW,210,1.0,2.0,85,0.00,,,0.03,1.000000,,2013-03-07 03:32:00,
2013-03-06 22:01:00,11.0,7.0,-100.00,SW,235,0.0,2.0,83,0.00,,,0.03,1.000000,,2013-03-07 04:01:00,
2013-03-06 22:11:00,11.0,7.0,-100.00,SW,235,0.0,2.0,83,0.00,,,0.03,1.000000,,2013-03-07 04:11:00,
2013-03-06 22:21:00,11.0,7.0,-100.00,SW,235,0.0,2.0,83,0.00,,,0.03,1.000000,,2013-03-07 04:21:00,
2013-03-06 22:32:00,11.0,7.0,-100.00,SW,235,0.0,2.0,83,0.00,,,0.03,1.000000,,2013-03-07 04:32:00,
2013-03-06 22:52:00,8.0,4.0,-100.00,SSW,199,1.0,3.0,83,0.00,,,0.03,1.000000,,2013-03-07 04:52:00,
2013-03-06 23:02:00,8.0,4.0,-100.00,SSW,199,1.0,3.0,83,0.00,,,0.03,1.000000,,2013-03-07 05:02:00,
2013-03-06 23:12:00,8.0,4.0,-100.00,SSW,199,1.0,3.0,83,0.00,,,0.03,1.000000,,2013-03-07 05:12:00,
2013-03-06 23:22:00,8.0,4.0,-100.00,SSW,199,1.0,3.0,83,0.00,,,0.03,1.000000,,2013-03-07 05:22:00,
2013-03-06 23:32:00,8.0,4.0,-100.00,SSW,199,1.0,3.0,83,0.00,,,0.03,1.000000,,2013-03-07 05:32:00,